Find Starlink 5043

NORAD ID: 53894 Int'l Des: 2022-119 Owner: SPXS Country: US Constellation: starlink operational
LEOCIRCULAR

リアルタイム位置

3D地球を読み込み中...

Starlink 5043について

説明を読み込み中...

次回通過

Passes for default location (London). Set your location on the main map for personalized predictions.

高度履歴

Loading altitude history...

軌道要素

1 53894U 22119J 26125.50001156 .00046499 00000-0 24638-2 0 9995
2 53894 53.2180 68.9202 0000558 39.6114 315.6716 15.14968210 5785
Epoch: May 5, 2026 • Age: 4 hours

現在のステータス

高度 539.6 km
速度 7.59 km/s
衛星直下点 -52.80°S, 119.97°W
打ち上げ日 Sep 24, 2022
運用期間 3.6 years
タイプ internet

技術仕様

分類 Payload
質量 305.00 kg
乾燥質量 290.00 kg
総質量 305.00 kg
長さ 0.20 m
直径 2.80 m
スパン 9.00 m
形状 Box + pan
製造者 SPXS
バスタイプ Starlink
フェーズステータス In Orbit
所有者/国 SPXS/US

Most Searched